Погода в Алакаевке

Россия / Самарская область     53°25′07″N   50°44′46″E
темп.,
°C
ветер,
м/с
пор.,
м/с
влажн.,
%
обл.,
%
осадки,
мм/ч
давл.,
гПа
погр.,
м
25 февраля, чт
чт2501:00−28ссз34960 0.0 103551
04:00−28сз339728 0.0 103534
07:00−29з12993 0.0 103519
10:00−24ю239243 0.0 103494
13:00−21ю4693100 0.0 1031244
16:00−19ю61090100 0.0 1028370
19:00−19ю71296100 0.6 1025465
22:00−17ю71296100 1.9 1023578
26 февраля, пт
пт2601:00−16ююв61295100 0.9 1020583
04:00−15ююв61195100 1.6 1019512
07:00−14юв61195100 0.4 1017435
10:00−13юв61094100 0.8 1017473
13:00−11юв6992100 0.3 1016541
16:00−11юв6992100 0.3 1016529
19:00−12юв61294100 0.1 1013396
22:00−11юв81494100 0.5 1010386
27 февраля, сб
сб2701:00−9ююв91594100 2.9 1004436
04:00−5ююв61096100 6.9 1001293
07:00−2ююз2698100 0.6 999212
10:00+1зюз499399 0.7 999396
13:00+1зюз51010084 0.1 999604
16:000зюз489990 0.3 999380
19:000юз379693 0.1 999251
22:00−3ююз469696 0.1 1000130
28 февраля, вс
вс2801:00−2юз4698100 0.2 999189
04:00−2юз3898100 0.9 1000282
07:00−3юз3598100 0.7 1001166
10:00−2з2397100 1.4 1002199
13:00−6сз579698 0.3 1004257
16:00−8ссз699497 0.5 1006378
19:00−11ссз6109498 0.1 1008334
22:00−13ссз4109697 0.2 1011276
1 марта, пн
пн101:00−13ссз5109596 0.1 1013323
04:00−15ссз599697 0.1 1014262
07:00−18ссз6109595 0.0 1017254
10:00−19ссз599475 0.0 1018260
13:00−17ссз699360 0.0 1020321
16:00−15ссз599268 0.0 1021368
19:00−18ссз489776 0.0 1022153
22:00−20сз339946 0.0 102441